星链-32553 (STARLINK-32553)

导读

STARLINK-32553是美国SpaceX星链计划的卫星,于2024年11月24日发射入轨,隶属于Starlink Gen2系列。该卫星旨在为全球提供低延迟、高速率的卫星互联网服务,覆盖偏远地区与网络基础设施匮乏区域。作为星链星座扩容的一环,它进一步完善了低轨卫星组网,推动全球全域互联覆盖能力提升。

基本信息
目录编号:
62071
目录名称:
STARLINK-32553
国际标识:
2024-217Q
轨道中心:
EARTH
卫星名称:
星链-32553
卫星全名:
星链-32553 (STARLINK-32553)
卫星状态:
在轨 (已飞行657 天)
发射日期:
2024-11-24 UTC
国别 :
美国 (US)
星等 :
--
该卫星已列入 空间交会检测服务 Space Conjunction Data Service (SCDS) ,当前飞行风险评估等级: 无高风险
轨道信息
数据来源 国际轨道数据
星历时间: 2026-09-12T00:25:36+0800
11小时前
查看轨道信息
半长轴: 6840.832km
偏心率: 0.0001014
轨道倾角: 53.161°
近地点辐角 104.549°
升交点赤经 46.732°
平近点角 255.562°
近地点: 462.001km
远地点: 463.389km
周期: 93.848分钟
每日圈数: 15.344031
详细信息
固有亮度:
5
最大亮度:
2.5
卫星平台:
Starlink V1.0
覆盖范围:
全球
运营商:
太空探索技术公司
运营商所在国:
美国
制造商(研发单位):
太空探索技术公司
制造商所在国:
美国
使用方式:
暂无
卫星简介
Starlink 计划是 SpaceX 推出的全球卫星互联网项目,通过发射低轨道卫星,为全球尤其是偏远地区提供高速、低延迟的互联网服务。自 2019 年起,Starlink 已部署数千颗卫星,旨在缩小全球数字鸿沟,推动互联网普及。该项目还为军事、航空等行业提供通信支持,带来广泛经济效益。
2D轨道图
3D轨道图
轨道高度分析图
轨道倾角分析图
轨道综合分析图
查看轨道综合分析图
交会数据列表
事件ID 空间交会对象 最接近时刻(TCA) 交会距离 交会风险概率(CRP) 交会风险指数(CRI) 操作
CDM_260912-175305-720306-207122
2026-09-12T
17:53:08+0000
1.735 km
极远距离
3.348566E-6 低风险 0.45
CDM_260912-083305-372706-207121
2026-09-12T
08:33:53+0000
1.886 km
极远距离
2.235274E-6 低风险 0.42
CDM_260913-114405-318306-207121
2026-09-13T
11:44:48+0000
2.403 km
极远距离
9.490156E-7 极低风险 0.35
与全量物体交会距离演化趋势
与全量物体交会风险概率演化趋势